Flag for U.S.A. Weather past 2 weeks in Olympia, Washington, U.S.A.

Now
50 °F

Light rain. Mostly cloudy.


Feels Like: 46 °F
Forecast: 45 / 54 °F
Wind: 9 mph from Southwest

Location: Olympia Airport


UV Index: 0 (Low)

Visibility: 7 mi


Pressure: 29.93 "Hg

Humidity: 93%

Dew point: 48 °F

Location of OlympiaLocation

Historic Weather in Olympia

°F

Olympia temperature yesterday

Maximum temperature yesterday: 53 °F (at 1:54 PM)
Minimum temperature yesterday: 47 °F (at 12:54 AM)
Average temperature yesterday: 50 °F

Past Weeks' High & Low Weather Summary

 TemperatureHumidityPressure
High74 °F (Apr 7, 4:54 PM)100% (Apr 4, 3:03 AM)30.32 "Hg (Apr 4, 3:03 AM)
Low31 °F (Apr 10, 6:01 AM)23% (Apr 13, 3:54 PM)29.90 "Hg (Apr 3, 5:54 PM)
Average49 °F77%30.12 "Hg
* Reported Apr 1 11:54 PM — Apr 16 11:54 PM, Olympia, Weather by CustomWeather, © 2014

Note: Actual official high and low records may vary slightly from our data, if they occured in-between our weather recording intervals... More about our weather records

Advertising

Historic Weather Conditions — Data for Previous 24 hours

 ConditionsComfort  
Time TempWeatherWind HumidityBarometerVisibility
11:54 PM
Apr 16
50 °FLight rain. Fog.8 mph93%29.94 "Hg5 mi
10:54 PM50 °FLight rain. Fog.9 mph93%29.96 "Hg5 mi
9:54 PM50 °FLight rain. Fog.8 mph93%29.98 "Hg4 mi
9:01 PM50 °FLight rain. Fog.7 mph93%29.98 "Hg5 mi
8:01 PM51 °FLight rain. Fog.8 mph89%29.99 "Hg4 mi
6:54 PM52 °FFog.9 mph89%30.01 "Hg6 mi
5:54 PM53 °FLight rain. Fog.12 mph86%30.02 "Hg5 mi
4:54 PM53 °FLight rain. Fog.12 mph86%30.03 "Hg6 mi
3:54 PM52 °FLight rain. Fog.13 mph89%30.04 "Hg4 mi
2:54 PM52 °FFog.12 mph86%30.06 "Hg6 mi
1:54 PM53 °FMostly cloudy.14 mph83%30.06 "Hg5 mi
12:54 PM52 °FLight rain. Fog.10 mph86%30.07 "Hg6 mi
11:54 AM51 °FLight rain. Fog.12 mph86%30.08 "Hg4 mi
10:54 AM49 °FFog.9 mph93%30.08 "Hg3 mi
9:54 AM48 °FLight rain. Fog.6 mph93%30.08 "Hg2 mi
9:02 AM48 °FLight rain. Fog.8 mph93%30.07 "Hg2 mi
7:54 AM48 °FMostly cloudy.12 mph89%30.07 "Hg10 mi
7:01 AM47 °FFog.8 mph93%30.08 "Hg6 mi
5:54 AM47 °FOvercast.7 mph93%30.08 "Hg8 mi
4:54 AM47 °FFog.6 mph93%30.09 "Hg6 mi
3:54 AM47 °FMostly cloudy.8 mph93%30.08 "Hg9 mi
2:54 AM47 °FMostly cloudy.8 mph93%30.09 "Hg8 mi
1:54 AM47 °FFog.7 mph93%30.09 "Hg5 mi
Weather by CustomWeather, © 2014

See weather overview